Weather in Namyangju

South Korea     37°39′21″N   127°14′37″E
temp.,
°C
wind,
m/s
gust,
m/s
humid.,
%
clouds,
%
prec.,
mm/h
press.,
hPa
HPBL,
m
11 may, tue
tue1100:00+9ene218787 0.0 101526
03:00+8ene2189100 0.0 101526
06:00+8ene2288100 0.0 101551
09:00+17e254860 0.0 1014500
12:00+23e462666 0.0 10131513
15:00+25se452194 0.0 10112095
18:00+21sse3639100 0.0 1012448
21:00+14e2258100 0.0 101432
12 may, wed
wed1200:00+12e2260100 0.0 101446
03:00+11ene2264100 0.0 101554
06:00+10ene226232 0.0 101561
09:00+18e123575 0.0 1015397
12:00+23ese2328100 0.0 10131133
15:00+25ssw2234100 0.0 10111484
18:00+23sse1148100 0.0 1011456
21:00+18nne116379 0.0 101317
13 may, thu
thu1300:00+16ne2171100 0.0 101318
03:00+14ene21792 0.0 101318
06:00+14e21820 0.0 101331
09:00+22e11560 0.0 1013432
12:00+27s11420 0.0 10121529
15:00+28sw2237100 0.0 10092119
18:00+27wsw124552 0.0 1009724
21:00+22nnw116289 0.0 101147
14 may, fri
fri1400:00+19e11760 0.0 101211
03:00+17ene21850 0.0 101122
06:00+16e11880 0.0 101236
09:00+23se12600 0.0 1012626
12:00+28s22454 0.0 10111602
15:00+29s33360 0.0 10082030
18:00+27se2448100 0.0 1008718
21:00+23w1162100 0.0 101043
15 may, sat
sat1500:00+22sse1167100 0.0 101030
03:00+21ese1176100 0.0 100936
06:00+20e1185100 0.2 100856
09:00+20ese1293100 1.3 1007186
12:00+19ese1298100 14.1 1005211
15:00+19s1199100 28.7 1004140
18:00+19ssw1399100 5.9 1004223
21:00+19sse1199100 9.3 100451